Home > Time Zones > World Clock > Weather > Norway > Gran > Past weeks

Flag for Norway Weather past 2 weeks in Gran, Norway

Now
14 °F

Cold.


Feels Like: 14 °F
Forecast: 19 / 30 °F
Wind: No wind

Location: Oslo Gardermoen Airport

Current Time: Jan 25, 2015 at 3:30:43 PM

Latest Report: Jan 25, 2015 at 2:50 PM


Visibility: 6 mi

Pressure: 30.07 "Hg

Humidity: 92%

Dew point: 12 °F

Location of GranLocation

Historic Weather in Gran — Graph

°F

Gran temperature yesterday

Maximum temperature yesterday: 32 °F (at 2:50 AM)
Minimum temperature yesterday: 19 °F (at 12:20 AM)
Average temperature yesterday: 29 °F

Past Weeks' High & Low Weather Summary

 TemperatureHumidityPressure
High39 °F (Jan 16, 1:50 PM)100% (Jan 10, 4:20 PM)30.24 "Hg (Jan 10, 4:20 PM)
Low1 °F (Jan 23, 7:20 AM)65% (Jan 17, 1:20 AM)28.26 "Hg (Jan 10, 6:20 PM)
Average25 °F90%29.53 "Hg
* Reported Jan 10 2:20 PM — Jan 25 2:20 PM, Gran, Weather by CustomWeather, © 2014

Note: Actual official high and low records may vary slightly from our data, if they occured in-between our weather recording intervals... More about our weather records

Advertising

Gran weather history for previous 24 hours

 ConditionsComfort  
Time TempWeatherWind HumidityBarometerVisibility
2:20 PM
Jan 25
14 °FCold.No wind92%30.07 "Hg6 mi
1:50 PM14 °FCold.No wind92%30.07 "HgN/A
1:20 PM16 °FCold.No wind86%30.07 "Hg6 mi
12:50 PM16 °FCold.No wind86%30.07 "Hg4 mi
12:20 PM14 °FCold.No wind92%30.07 "Hg1 mi
11:50 AM14 °FCold.No wind85%30.07 "Hg1 mi
11:20 AM14 °FCold.No wind85%30.07 "Hg6 mi
10:50 AM12 °FSleet. Cloudy.No wind85%30.07 "Hg1 mi
10:20 AM10 °FSleet. Cloudy.No wind92%30.07 "Hg1 mi
9:50 AM10 °FCold.No wind85%30.04 "Hg1 mi
9:20 AM12 °FCold.No wind85%30.04 "Hg1 mi
8:50 AM12 °FCold.No wind85%30.04 "Hg1 mi
8:20 AM14 °FIce fog.No wind92%30.04 "Hg0 mi
7:50 AM14 °FIce fog.No wind92%30.01 "Hg0 mi
7:20 AM14 °FIce fog.No wind92%30.01 "Hg0 mi
6:50 AM16 °FIce fog.No wind93%30.01 "Hg1 mi
5:50 AM16 °FIce fog.No wind93%29.98 "Hg0 mi
5:20 AM14 °FIce fog.2 mph92%29.95 "Hg1 mi
4:50 AM14 °FCold.No wind85%29.95 "Hg1 mi
4:20 AM16 °FIce fog.No wind93%29.95 "Hg1 mi
3:50 AM18 °FIce fog.2 mph93%29.92 "Hg1 mi
3:20 AM18 °FIce fog.3 mph93%29.92 "Hg0 mi
2:50 AM16 °FIce fog.3 mph93%29.89 "Hg0 mi
2:20 AM16 °FIce fog.5 mph93%29.89 "Hg0 mi
1:50 AM12 °FSleet. Overcast.5 mph92%29.89 "Hg1 mi
1:20 AM18 °FCold.2 mph93%29.86 "HgN/A
12:50 AM21 °FCold.3 mph93%29.86 "Hg1 mi
12:20 AM21 °FCold.3 mph93%29.83 "HgN/A
11:20 PM
Jan 24
25 °FCold.5 mph93%29.80 "HgN/A
10:50 PM27 °FFog.6 mph93%29.80 "HgN/A
10:20 PM25 °FLight fog.3 mph93%29.80 "HgN/A
9:50 PM21 °FCold.No wind93%29.77 "HgN/A
9:20 PM25 °FLight fog.No wind93%29.77 "HgN/A
8:50 PM27 °FLight fog.3 mph93%29.77 "HgN/A
8:20 PM28 °FPassing clouds.3 mph93%29.77 "HgN/A
7:50 PM30 °FPassing clouds.7 mph86%29.74 "HgN/A
7:20 PM30 °FPassing clouds.5 mph93%29.74 "HgN/A
6:50 PM30 °FPassing clouds.5 mph93%29.74 "HgN/A
6:20 PM30 °FPassing clouds.5 mph93%29.71 "Hg5 mi
5:50 PM30 °FPassing clouds.6 mph100%29.71 "Hg6 mi
5:20 PM30 °FPassing clouds.6 mph100%29.71 "Hg5 mi
4:50 PM30 °FPassing clouds.6 mph100%29.68 "Hg5 mi
4:20 PM30 °FPartly cloudy.7 mph100%29.68 "Hg6 mi
3:50 PM30 °FPartly sunny.6 mph100%29.68 "Hg6 mi
3:20 PM32 °FBroken clouds.7 mph93%29.65 "Hg5 mi
Weather by CustomWeather, © 2014

See weather overviewHow to use our weather pages